Location: Mount Cross
(36.6390°N, 79.4878°W)
Time: 10:54:29
(UTC+00:00)

A-11 Canister half - Visible Passes

Search period start: 30 March 2023 00:00
Search period end: 09 April 2023 00:00
Orbit: 1512 x 1687 km, 47.2° (Epoch: 29 March)

Date Brightness Start Highest point End Pass type
(mag) Time Alt. Az. Time Alt. Az. Time Alt. Az.
30 Mar 9.1 01:27:42 10° WSW 01:37:28 83° NNW 01:47:36 10° ENE visible
30 Mar 9.7 03:34:05 10° W 03:43:36 48° N 03:46:25 40° NNE visible
30 Mar 10.4 05:40:37 10° WNW 05:59:01 15° E 06:00:23 10° E visible
30 Mar 9.0 07:57:22 70° SSE 07:57:22 70° SSE 08:06:16 10° SE visible
30 Mar 10.0 09:55:42 18° W 10:00:06 24° SW 10:07:28 10° S visible
31 Mar 9.1 01:04:45 10° WSW 01:14:28 86° NNW 01:24:35 10° ENE visible
31 Mar 9.7 03:11:01 10° W 03:20:31 49° N 03:25:03 32° NE visible
31 Mar 10.1 05:17:35 10° WNW 05:39:08 - E 05:23:15 35° NW visible
31 Mar 9.7 07:37:29 41° SE 07:37:29 41° SE 07:43:20 10° SE visible
31 Mar 9.8 09:35:50 25° WSW 09:37:14 26° SW 09:44:56 10° S visible
01 Apr 9.1 00:41:49 10° SW 00:51:30 90° NNW 01:01:35 10° ENE visible
01 Apr 9.7 02:47:57 10° W 02:57:26 49° NNW 03:03:29 25° NE visible
01 Apr 9.9 04:54:35 10° WNW 05:01:41 43° NNW 05:01:41 43° NNW visible
01 Apr 10.5 07:17:39 22° SE 07:17:39 22° SE 07:20:24 10° SE visible
01 Apr 9.9 09:16:00 26° SW 09:16:00 26° SW 09:22:21 10° S visible
02 Apr 9.1 00:18:53 10° SW 00:28:31 86° SE 00:38:34 10° ENE visible
02 Apr 9.7 02:24:54 10° W 02:34:22 50° NNW 02:41:48 19° NE visible
02 Apr 9.7 04:31:34 10° WNW 04:40:00 48° N 04:40:00 48° N visible
02 Apr 10.9 06:37:00 10° WNW 06:57:46 - SE 06:38:11 15° WNW visible
02 Apr 10.2 08:56:06 21° SSW 08:56:06 21° SSW 08:59:44 10° S visible
02 Apr 9.1 23:55:59 10° SW 00:05:34 83° SE 00:15:34 10° ENE visible
03 Apr 9.7 02:01:50 10° W 02:11:19 51° NNW 02:20:02 14° ENE visible
03 Apr 9.7 04:08:32 10° WNW 04:18:10 49° N 04:18:13 49° NNE visible
03 Apr 10.7 06:14:01 10° WNW 06:16:23 20° WNW 06:16:23 20° WNW visible
03 Apr 10.7 08:36:05 13° S 08:36:05 13° S 08:37:05 10° S visible
04 Apr 9.7 01:38:47 10° W 01:48:15 52° NNW 01:58:03 10° ENE visible
04 Apr 9.7 03:45:31 10° WNW 03:55:05 48° N 03:56:22 46° NNE visible
04 Apr 10.4 05:51:03 10° WNW 05:54:34 26° NW 05:54:34 26° NW visible
05 Apr 9.7 01:15:45 10° W 01:25:12 54° NNW 01:35:01 10° ENE visible
05 Apr 9.7 03:22:29 10° WNW 03:32:00 47° N 03:34:31 41° NE visible
05 Apr 10.2 05:28:04 10° WNW 05:32:41 32° NW 05:32:41 32° NW visible
06 Apr 9.7 00:52:42 10° W 01:02:09 55° NNW 01:11:58 10° ENE visible
06 Apr 9.8 02:59:28 10° WNW 03:08:55 47° N 03:12:37 35° NE visible
06 Apr 9.9 05:05:05 10° WNW 05:10:48 40° NW 05:10:48 40° NW visible
07 Apr 9.7 00:29:40 10° W 00:39:07 57° NNW 00:48:56 10° ENE visible
07 Apr 9.8 02:36:26 10° WNW 02:45:50 46° N 02:50:43 29° ENE visible
07 Apr 9.7 04:42:06 10° WNW 04:48:53 49° NW 04:48:53 49° NW visible
08 Apr 9.7 00:06:38 10° W 00:16:05 58° NNW 00:25:54 10° ENE visible
08 Apr 9.8 02:13:25 10° WNW 02:22:45 46° N 02:28:48 24° ENE visible
08 Apr 9.5 04:19:08 10° WNW 04:26:58 58° NNW 04:26:58 58° NNW visible
08 Apr 11.0 06:24:33 10° WNW 06:25:09 12° WNW 06:25:09 12° WNW visible
